Погода в Барсуках

Россия / Псковская область     56°52′11″N   30°36′09″E
темп.,
°C
ветер,
м/с
пор.,
м/с
влажн.,
%
обл.,
%
осадки,
мм/ч
давл.,
гПа
погр.,
м
14 апреля, ср
ср1400:00+10ююв1198100 0.1 101745
03:00+10ююз1298100 0.3 101690
06:00+6ссз4896100 1.1 1016363
09:00+5ссз4793100 1.8 1017432
12:00+4ссз3692100 0.0 1019436
15:00+5с3789100 0.0 1020456
18:00+5ссв3990100 0.0 1020525
21:00+4ссв3993100 0.1 1021485
15 апреля, чт
чт1500:00+4ссв399497 0.0 1021468
03:00+4ссв41091100 0.0 1022458
06:00+3ссв41179100 0.0 1022470
09:00+4ссв51278100 0.0 1022529
12:00+8ссв5970100 0.0 1022792
15:00+7св51177100 0.4 1022828
18:00+7св51181100 1.4 10221015
21:00+6св61290100 3.1 1023969
16 апреля, пт
пт1600:00+6св51292100 1.2 1022843
03:00+5св51289100 1.2 1022743
06:00+4св51290100 0.0 1022752
09:00+5св5118598 0.0 1023619
12:00+6св51187100 2.3 1023756
15:00+11всв5107399 2.3 10221112
18:00+10всв51075100 0.0 1023807
21:00+9св51177100 0.0 1024702
17 апреля, сб
сб1700:00+6св5127892 0.0 1025539
03:00+6св4117598 0.1 1025557
06:00+5св4117587 0.1 1026558
09:00+7св4976100 0.4 1025515
12:00+12всв575898 0.0 1027982
15:00+14в5754100 0.0 10271380
18:00+13всв4957100 0.0 10271186
21:00+9всв3116572 0.0 1028368
18 апреля, вс
вс1800:00+7всв311715 0.0 1029365
03:00+5св3107575 0.0 1029328
06:00+4всв387996 0.0 1029260
09:00+8в4959100 0.0 1029503
12:00+13вюв4646100 0.0 10291120
15:00+15вюв46365 0.0 10301648
18:00+14вюв365299 0.0 1028690
21:00+11вюв2466100 0.0 102988